Location: Unspecified
(0.0000°N, 0.0000°E)
Time: 21:06:13
(UTC+00:00)

DMSP F15 (USA 147) - Pass Details

Date: 08 October 2020
Orbit: 829 x 845 km, 99.0° (Epoch: 26 October)

Event Time Altitude Azimuth Distance (km) Brightness Sun altitude
Rises 03:02:09 0° 32° (NNE) 3,357 8.6 -41.1°
Enters shadow 03:04:25 - 41° (NE) 2,539 8.0 -40.5°
Exits shadow 03:15:02 - 168° (SSE) 2,755 8.0 -37.9°
Sets 03:16:44 0° 174° (S) 3,380 8.5 -37.5°
